Weather History for Pasco, WA

Change the Weather History Date:

Monday, September 9, 2013

  Actual Average Record
Temperature  
Mean Temperature 72 °F 66 °F  
Max Temperature 90 °F 83 °F 96 °F (1990)
Min Temperature 53 °F 49 °F 42 °F (2007)
Degree Days  
Heating Degree Days 0 2  
Month to date heating degree days 1 10  
Since 1 July heating degree days 1 22  
Cooling Degree Days 7 2  
Month to date cooling degree days 65 30  
Year to date cooling degree days 927 687  
Growing Degree Days 21 (Base 50)    
Moisture  
Dew Point 54 °F    
Average Humidity 60    
Maximum Humidity 93    
Minimum Humidity 27    
Precipitation  
Precipitation 0.00 in 0.01 in 0.20 in (2003)
Month to date precipitation 0.43 0.09  
Year to date precipitation 3.75 5.57  
Snow  
Snow 0.00 in - - ()
Snow Depth 0.00 in    
Sea Level Pressure  
Sea Level Pressure 29.92 in    
Wind  
Wind Speed 2 mph (North)    
Max Wind Speed 7 mph    
Max Gust Speed 9 mph    
Visibility 10 miles    
Events      
T = Trace of Precipitation, MM = Missing Value Source: NWS Daily Summary

Daily Weather History Graph

Daily Weather History Graph

Search for Another Location

Airport:

Trip Planner

Search our weather history database for the weather conditions in past years. The results will help you decide how hot, cold, wet, or windy it might be!

Date:

Astronomy

Sep. 09, 2013 Rise Set
Actual Time 6:27 AM PDT 7:19 PM PDT
Civil Twilight 5:56 AM PDT 7:49 PM PDT
Nautical Twilight 5:20 AM PDT 8:25 PM PDT
Astronomical Twilight 4:42 AM PDT 9:03 PM PDT
Moon 11:12 AM PDT (9/9) 9:20 PM PDT (9/9)
Length of Visible Light 13h 52m
Length of Day
12h 51m
Waxing Crescent, 20% of the Moon is Illuminated
Sep 9
Waxing Crescent
Sep 12
First Quarter
Sep 19
Full
Sep 26
Last Quarter
Oct 4
New

Hourly Weather History & Observations

Time (PDT) Temp. Heat Index Dew Point Humidity Pressure Visibility Wind Dir Wind Speed Gust Speed Precip Events Conditions
12:53 AM 63.0 °F - 55.0 °F 75% 29.95 in 10.0 mi Calm Calm - N/A   Clear
1:53 AM 61.0 °F - 54.0 °F 78% 29.94 in 10.0 mi East 3.5 mph - N/A   Clear
2:53 AM 61.0 °F - 54.0 °F 78% 29.93 in 10.0 mi East 3.5 mph - N/A   Clear
3:53 AM 57.0 °F - 52.0 °F 83% 29.94 in 10.0 mi Calm Calm - N/A   Clear
4:53 AM 55.0 °F - 52.0 °F 89% 29.94 in 10.0 mi Calm Calm - N/A   Clear
5:53 AM 54.0 °F - 52.0 °F 93% 29.94 in 10.0 mi Calm Calm - N/A   Clear
6:53 AM 53.1 °F - 52.0 °F 96% 29.96 in 10.0 mi Calm Calm - N/A   Clear
7:53 AM 60.1 °F - 55.9 °F 86% 29.97 in 10.0 mi Calm Calm - N/A   Clear
8:53 AM 68.0 °F - 55.0 °F 63% 29.98 in 10.0 mi Calm Calm - N/A   Clear
9:53 AM 73.9 °F - 54.0 °F 50% 29.97 in 10.0 mi Calm Calm - N/A   Clear
10:53 AM 79.0 °F - 53.1 °F 40% 29.97 in 10.0 mi Calm Calm - N/A   Clear
11:53 AM 82.0 °F 81.3 °F 54.0 °F 38% 29.96 in 10.0 mi Variable 4.6 mph - N/A   Clear
12:53 PM 84.0 °F 82.6 °F 54.0 °F 35% 29.94 in 10.0 mi ESE 4.6 mph - N/A   Clear
1:53 PM 84.9 °F 83.2 °F 53.1 °F 33% 29.92 in 10.0 mi North 4.6 mph - N/A   Clear
2:53 PM 87.1 °F - 51.1 °F 29% 29.90 in 10.0 mi WSW 4.6 mph - N/A   Clear
3:53 PM 88.0 °F - 50.0 °F 27% 29.88 in 10.0 mi West 3.5 mph - N/A   Clear
4:53 PM 88.0 °F - 51.1 °F 28% 29.87 in 10.0 mi Calm Calm - N/A   Clear
5:53 PM 89.1 °F - 52.0 °F 28% 29.86 in 10.0 mi Calm Calm - N/A   Clear
6:53 PM 81.0 °F 81.1 °F 57.9 °F 45% 29.86 in 10.0 mi NE 4.6 mph - N/A   Clear
7:53 PM 73.0 °F - 60.1 °F 64% 29.86 in 10.0 mi Calm Calm - N/A   Clear
8:53 PM 69.1 °F - 59.0 °F 70% 29.87 in 10.0 mi NNW 3.5 mph - N/A   Clear
9:53 PM 64.9 °F - 59.0 °F 81% 29.88 in 10.0 mi NNW 3.5 mph - N/A   Clear
10:53 PM 64.0 °F - 57.9 °F 80% 29.88 in 10.0 mi NW 3.5 mph - N/A   Clear
11:53 PM 60.1 °F - 57.0 °F 90% 29.89 in 10.0 mi Calm Calm - N/A   Clear